Details From PAJN - Juneau Intl
To PASI - SITKA ROCKY GUTIERREZ
Flight Number -
Tags generated
Created
Modified
Stats Distance 84 nm / 156 km
Max Altitude 10,100 ft / 3,078 m
Waypoints 3
Social Downloads 1
Likes 0
Share VATSIM

Download

Looking for another format? Having issues loading an existing format? Contact us
Advertisement - Login to hide

Notes

Basic altitude profile: - Ascent Rate: 2500ft/min - Ascent Speed: 250kts - Cruise Altitude: 35000ft - Cruise Speed: 420kts - Descent Rate: 1500ft/min - Descent Speed: 250kts Options: - Use NATs: yes - Use PACOTS: yes - Use low airways: yes - Use high airways: yes

Route

PAJN HOODS PASI

ID Type Via Altitude Latitude Longitude Leg Dist Tot Dist Heading (true) Name
O PAJN APT - 0 ft / 0 m 58.35496˚ -134.57628˚ - 0 nm - Juneau Intl
HOODS FIX - 10,100 ft / 3,078 m 57.74293˚ -134.68157˚ 36 nm 36 nm 185° / 185° -
O PASI APT - 0 ft / 0 m 57.04713˚ -135.36160˚ 47 nm 84 nm 208° / 207° SITKA ROCKY GUTIERREZ

Altitude Profile

Advertisement - Login to hide

PAJN

Details ICAO PAJN (JNU)
Name Juneau Intl
Region USA (Alaska)
Timezone America/Juneau (UTC-8.0)
Stats Elevation 21 ft / 6 m (AMSL)
Location 58.354964° -134.576278°
Runways 1
Magnetic Variation 19.022° E

METAR

PAJN 220153Z 13014KT 6SM -RA BR FEW032 BKN041 OVC055 10/08 A2974

Decode

TAF

PAJN 212328Z 2200/2224 12020G30KT 6SM -RA BR SCT020 BKN040 OVC060 WS020/14040KT FM220400 11015KT P6SM -RA SCT015 OVC035 FM221000 11014KT 5SM -RA BR BKN025 OVC035 FM221800 14010KT P6SM -SHRA SCT025 BKN050

Decode

Departure Runways

ID Width Length Bearing (true) Bearing (mag) Surface Threshold Offset Overrun Length
08 150 ft / 46 m 8,430 ft / 2,570 m 104.87° 85.85° Asphalt 0 ft / 0 m 450 ft / 137 m
26 150 ft / 46 m 8,430 ft / 2,570 m 284.90° 265.88° Asphalt 0 ft / 0 m 225 ft / 69 m

PASI

Details ICAO PASI (SIT)
Name SITKA ROCKY GUTIERREZ
Region USA (Alaska)
Timezone America/Juneau (UTC-8.0)
Stats Elevation 21 ft / 6 m (AMSL)
Location 57.047128° -135.361597°
Runways 1
Magnetic Variation 18.634° E

METAR

PASI 220153Z 18007KT 7SM -RA BKN029 OVC042 10/08 A2973

Decode

TAF

TAF AMD PASI 220120Z 2201/2224 19014KT P6SM -SHRA FEW015 SCT027 OVC045 WS020/15045KT TEMPO 2201/2202 19025G35KT 3SM SHRA BR SCT015 OVC025 FM220200 14011KT P6SM -SHRA SCT015 OVC025 FM220900 15007KT P6SM -SHRA BKN030 OVC050 FM221500 15008G16KT 6SM -SHRA SCT025 OVC035

Decode

Destination Runways

ID Width Length Bearing (true) Bearing (mag) Surface Threshold Offset Overrun Length
11 150 ft / 46 m 6,485 ft / 1,977 m 135.57° 116.94° Asphalt 0 ft / 0 m 0 ft / 0 m
29 150 ft / 46 m 6,485 ft / 1,977 m 315.59° 296.96° Asphalt 0 ft / 0 m 0 ft / 0 m

Approach Navaids

Runway Type Ident Frequency Range Bearing (true) Bearing (mag) Slope Elevation
11 Localiser ISIT 108.90 MHz 18 nm / 33 km 143.51° 124.87° - 15 ft / 5 m (AMSL)
11 DME ISIT 108.90 MHz 18 nm / 33 km - - - 34 ft / 10 m (AMSL)

Popular Alternatives